Home   Weather   New Orleans   Past weeks

Flag for USA Past Weather in New Orleans, Louisiana, USA — Yesterday and Last 2 Weeks

Now
61 °F

Overcast.


Feels Like: 61 °F
Forecast: 54 / 63 °F
Wind: 9 mph from Northeast

Location: Lakefront Airport

Current Time: Dec 7, 2016 at 2:20:21 pm

Latest Report: Dec 7, 2016 at 1:53 pm


Visibility: 8 mi

Pressure: 30.06 "Hg

Humidity: 81%

Dew Point: 55 °F

Location of New OrleansLocation

Past Weather in New Orleans — Graph

°F

New Orleans Temperature Yesterday

Maximum temperature yesterday: 67 °F (at 12:53 am)
Minimum temperature yesterday: 57 °F (at 6:53 am)
Average temperature yesterday: 58 °F

High & Low Weather Summary for the Past Weeks

 TemperatureHumidityPressure
High83 °F (Nov 29, 11:53 am)100% (Dec 4, 4:53 am)30.36 "Hg (Dec 4, 4:53 am)
Low52 °F (Nov 27, 6:53 am)41% (Dec 1, 12:53 pm)29.63 "Hg (Nov 28, 5:53 pm)
Average64 °F76%30.01 "Hg
* Reported Nov 22 12:53 pm — Dec 7 12:53 pm, New Orleans, Weather by CustomWeather, © 2016

Note: Actual official high and low records may vary slightly from our data, if they occured in-between our weather recording intervals... More about our weather records

Advertising

New Orleans Weather History for the Previous 24 Hours

Scroll right to see more
 ConditionsComfort  
Time TempWeatherWind HumidityBarometerVisibility
12:53 pm
Wed, Dec 7
60 °FOvercast.9 mph83%30.07 "Hg8 mi
11:53 am60 °FFog.10 mph86%30.09 "Hg6 mi
10:53 am59 °FMostly cloudy.6 mph87%30.11 "Hg7 mi
9:53 am58 °FMostly cloudy.5 mph87%30.12 "Hg7 mi
8:53 am55 °FFog.5 mph94%30.11 "Hg6 mi
7:53 am56 °FFog.5 mph90%30.09 "Hg5 mi
6:53 am55 °FFog.No wind93%30.08 "Hg6 mi
5:53 am55 °FFog.3 mph93%30.05 "Hg6 mi
4:53 am55 °FLow clouds.5 mph93%30.03 "Hg7 mi
3:53 am55 °FLow clouds.7 mph93%30.02 "Hg7 mi
2:53 am55 °FLow clouds.6 mph93%30.02 "Hg8 mi
1:53 am56 °FLow clouds.10 mph90%30.02 "Hg9 mi
12:53 am56 °FLow clouds.8 mph90%30.01 "Hg9 mi
11:53 pm
Tue, Dec 6
57 °FOvercast.6 mph87%30.01 "Hg9 mi
10:53 pm57 °FOvercast.8 mph90%30.02 "Hg9 mi
9:53 pm57 °FOvercast.8 mph90%30.02 "Hg8 mi
8:53 pm57 °FOvercast.9 mph90%30.01 "Hg7 mi
7:53 pm57 °FOvercast.9 mph90%30.01 "Hg8 mi
6:53 pm57 °FOvercast.9 mph90%30.00 "Hg9 mi
5:53 pm57 °FOvercast.9 mph90%29.98 "Hg9 mi
4:53 pm57 °FOvercast.9 mph87%29.95 "Hg7 mi
3:53 pm57 °FOvercast.8 mph87%29.92 "Hg8 mi
2:53 pm57 °FOvercast.12 mph87%29.92 "Hg8 mi
Weather by CustomWeather, © 2016

See weather overviewHow to use our weather pages